Location: Béaulencourt
(50.0796°N, 2.8795°E)
Time: 20:55:38
(UTC+00:00)

RUBIN 8/PSLV - Pass Details

Date: 20 January 2026
Orbit: 593 x 628 km, 98.1° (Epoch: 16 February)

Event Time Altitude Azimuth Distance (km) Brightness Sun altitude
Rises 05:41:54 0° 13° (NNE) 2,846 8.0 -18.0°
Reaches altitude 10° 05:44:04 10° 12° (NNE) 1,940 7.1 -17.7°
Maximum altitude 05:48:17 80° 286° (WNW) 611 4.4 -17.0°
Drops below altitude 10° 05:52:28 10° 200° (SSW) 1,935 7.0 -16.4°
Sets 05:54:38 0° 199° (SSW) 2,837 7.9 -16.0°
